Location: Unspecified
(44.0704°N, 88.6889°W)
Time: 03:34:34
(UTC+01:00)

CZ-3 Stage 3 - Pass Details

Date: 13 November 2019
Orbit: 406 x 34783 km, 30.5° (Epoch: 07 December)

Event Time Altitude Azimuth Distance (km) Brightness Sun altitude
Rises 03:17:35 0° 146° (SSE) 40,581 10.9 -40.5°
Reaches altitude 10° 06:37:37 10° 150° (SSE) 23,532 9.7 -63.8°
Maximum altitude 06:51:18 10° 147° (SSE) 21,060 9.5 -63.7°
Drops below altitude 10° 07:02:17 10° 144° (SE) 18,907 9.3 -63.4°
Sets 07:40:01 0° 115° (ESE) 10,722 8.4 -60.9°
